| time (UTC) | temp F | wind direction | speed knots | gust knots | rain 1hr in | rain 24hr in | rain mn in | humidity % | barometer mb |
| 20260507103519 | 29 | 221 | 0.0 | 1.7 | 0.00 | 0.00 | 0.00 | 79 | |
| 20260507102534 | 29 | 229 | 0.0 | 0.9 | 0.00 | 0.00 | 0.00 | 80 | |
| 20260507101519 | 29 | 225 | 0.0 | 0.9 | 0.00 | 0.00 | 0.00 | 80 | |
| 20260507100529 | 29 | 0.0 | 0.0 | 0.00 | 0.00 | 0.00 | 79 | ||
| 20260507095519 | 29 | 228 | 0.0 | 0.9 | 0.00 | 0.00 | 0.00 | 80 | |
| 20260507094554 | 29 | 234 | 0.0 | 0.9 | 0.00 | 0.00 | 0.00 | 81 | |
| 20260507093519 | 28 | 207 | 0.0 | 0.9 | 0.00 | 0.00 | 0.00 | 82 | |
| 20260507092527 | 28 | 218 | 0.0 | 0.9 | 0.00 | 0.00 | 0.00 | 82 | |
| 20260507091519 | 28 | 197 | 0.0 | 0.9 | 0.00 | 0.00 | 0.00 | 82 | |
| 20260507090527 | 28 | 0.0 | 0.0 | 0.00 | 0.00 | 0.00 | 83 | ||
| 20260507085519 | 28 | 0.0 | 0.0 | 0.00 | 0.00 | 0.00 | 83 | ||
| 20260507084527 | 28 | 208 | 0.0 | 0.9 | 0.00 | 0.00 | 0.00 | 82 | |
| 20260507083519 | 28 | 0.0 | 0.0 | 0.00 | 0.00 | 0.00 | 82 | ||
| 20260507082528 | 28 | 0.0 | 0.0 | 0.00 | 0.00 | 0.00 | 82 | ||
| 20260507081519 | 28 | 0.0 | 0.0 | 0.00 | 0.00 | 0.00 | 82 | ||
| 20260507080527 | 28 | 0.0 | 0.0 | 0.00 | 0.00 | 0.00 | 82 | ||
| 20260507075519 | 28 | 0.0 | 0.0 | 0.00 | 0.00 | 0.00 | 82 | ||
| 20260507074527 | 28 | 0.0 | 0.0 | 0.00 | 0.00 | 0.00 | 81 | ||
| 20260507073519 | 28 | 0.0 | 0.0 | 0.00 | 0.00 | 0.00 | 80 | ||
| 20260507072528 | 28 | 0.0 | 0.0 | 0.00 | 0.00 | 0.00 | 80 | ||
| 20260507071519 | 28 | 0.0 | 0.0 | 0.00 | 0.00 | 0.00 | 79 | ||
| 20260507070528 | 29 | 0.0 | 0.0 | 0.00 | 0.00 | 0.00 | 78 | ||
| 20260507065519 | 29 | 0.0 | 0.0 | 0.00 | 0.00 | 0.00 | 77 | ||
| 20260507064527 | 29 | 0.0 | 0.0 | 0.00 | 0.00 | 0.00 | 76 | ||
| 20260507063556 | 30 | 0.0 | 0.0 | 0.00 | 0.00 | 0.00 | 76 | ||
| 20260507062527 | 31 | 0.0 | 0.0 | 0.00 | 0.00 | 0.00 | 73 | ||
| 20260507061520 | 32 | 0.0 | 0.0 | 0.00 | 0.00 | 0.00 | 72 | ||
| 20260507060528 | 32 | 0.0 | 0.0 | 0.00 | 0.00 | 0.00 | 72 | ||
| 20260507055541 | 32 | 0.0 | 0.0 | 0.00 | 0.00 | 0.00 | 71 | ||
| 20260507054528 | 33 | 0.0 | 0.0 | 0.00 | 0.00 | 0.00 | 69 | ||
| 20260507053520 | 34 | 0.0 | 0.0 | 0.00 | 0.00 | 0.00 | 68 | ||
| 20260507052528 | 35 | 227 | 0.0 | 0.9 | 0.00 | 0.00 | 0.00 | 67 | |
| 20260507051522 | 36 | 0.0 | 0.0 | 0.00 | 0.00 | 0.00 | 65 | ||
| 20260507050528 | 37 | 232 | 0.0 | 0.9 | 0.00 | 0.00 | 0.00 | 64 | |
| 20260507045520 | 37 | 232 | 0.0 | 0.9 | 0.00 | 0.00 | 0.00 | 65 | |
| 20260507044528 | 37 | 228 | 0.0 | 0.9 | 0.00 | 0.00 | 0.00 | 66 | |
| 20260507043521 | 37 | 232 | 0.0 | 0.9 | 0.00 | 0.00 | 0.00 | 65 | |
| 20260507042528 | 37 | 230 | 0.0 | 0.9 | 0.00 | 0.00 | 0.00 | 65 | |
| 20260507041520 | 37 | 0.0 | 0.0 | 0.00 | 0.00 | 0.00 | 65 | ||
| 20260507040534 | 37 | 224 | 0.0 | 0.9 | 0.00 | 0.00 | 0.00 | 65 | |
| 20260507035520 | 37 | 0.0 | 0.0 | 0.00 | 0.00 | 0.00 | 66 | ||
| 20260507034528 | 37 | 231 | 0.0 | 0.9 | 0.00 | 0.00 | 0.00 | 65 | |
| 20260507033520 | 37 | 0.0 | 0.0 | 0.00 | 0.00 | 0.00 | 64 | ||
| 20260507032530 | 37 | 0.0 | 0.0 | 0.00 | 0.00 | 0.00 | 65 | ||
| 20260507031521 | 37 | 0.0 | 0.0 | 0.00 | 0.00 | 0.00 | 63 | ||
| 20260507030528 | 37 | 0.0 | 0.0 | 0.00 | 0.00 | 0.00 | 63 | ||
| 20260507025520 | 37 | 0.0 | 0.0 | 0.00 | 0.00 | 0.00 | 62 | ||
| 20260507024535 | 37 | 0.0 | 0.0 | 0.00 | 0.00 | 0.00 | 62 | ||
| 20260507023520 | 38 | 0.0 | 0.0 | 0.00 | 0.00 | 0.00 | 62 | ||
| 20260507022528 | 38 | 0.0 | 0.0 | 0.00 | 0.00 | 0.00 | 62 | ||
| 20260507021520 | 38 | 0.0 | 0.0 | 0.00 | 0.00 | 0.00 | 61 | ||
| 20260507020528 | 38 | 0.0 | 0.0 | 0.00 | 0.00 | 0.00 | 61 | ||
| 20260507015542 | 38 | 237 | 0.0 | 0.9 | 0.00 | 0.00 | 0.00 | 60 | |
| 20260507014530 | 38 | 0.0 | 0.0 | 0.00 | 0.00 | 0.00 | 59 | ||
| 20260507013541 | 38 | 0.0 | 0.0 | 0.00 | 0.00 | 0.00 | 58 | ||
| 20260507012528 | 39 | 227 | 0.0 | 0.9 | 0.00 | 0.00 | 0.00 | 58 | |
| 20260507011600 | 39 | 0.0 | 0.0 | 0.00 | 0.00 | 0.00 | 57 | ||
| 20260507010528 | 39 | 250 | 0.0 | 0.9 | 0.00 | 0.00 | 0.00 | 57 | |
| 20260507005520 | 39 | 268 | 0.0 | 0.9 | 0.00 | 0.00 | 0.00 | 56 | |
| 20260507004528 | 39 | 235 | 0.0 | 4.3 | 0.00 | 0.00 | 0.00 | 55 | |
| 20260507003558 | 40 | 227 | 0.0 | 1.7 | 0.00 | 0.00 | 0.00 | 55 | |
| 20260507002530 | 40 | 272 | 0.9 | 2.6 | 0.00 | 0.00 | 0.00 | 55 | |
| 20260507001520 | 40 | 267 | 0.0 | 1.7 | 0.00 | 0.00 | 0.00 | 54 | |
| 20260507000528 | 40 | 232 | 0.0 | 1.7 | 0.00 | 0.00 | 0.00 | 55 | |
| 20260506235522 | 40 | 303 | 0.9 | 4.3 | 0.00 | 0.00 | 0.00 | 54 | |
| 20260506234529 | 40 | 232 | 0.9 | 2.6 | 0.00 | 0.00 | 0.00 | 54 | |
| 20260506233520 | 40 | 254 | 1.7 | 4.3 | 0.00 | 0.00 | 0.00 | 54 | |
| 20260506232529 | 40 | 290 | 0.9 | 2.6 | 0.00 | 0.00 | 0.00 | 54 | |
| 20260506231520 | 40 | 244 | 0.9 | 5.2 | 0.00 | 0.00 | 0.00 | 54 | |
| 20260506230529 | 40 | 264 | 1.7 | 2.6 | 0.00 | 0.00 | 0.00 | 54 | |
| 20260506225521 | 41 | 242 | 0.9 | 4.3 | 0.00 | 0.00 | 0.00 | 53 | |
| 20260506224529 | 41 | 241 | 0.9 | 2.6 | 0.00 | 0.00 | 0.00 | 53 | |
| 20260506223541 | 41 | 277 | 0.9 | 2.6 | 0.00 | 0.00 | 0.00 | 52 | |
| 20260506222529 | 41 | 272 | 1.7 | 7.8 | 0.00 | 0.00 | 0.00 | 53 | |
| 20260506221521 | 41 | 248 | 0.9 | 4.3 | 0.00 | 0.00 | 0.00 | 54 | |
| 20260506220528 | 41 | 271 | 0.9 | 4.3 | 0.00 | 0.00 | 0.00 | 54 | |
| 20260506215521 | 40 | 233 | 0.9 | 4.3 | 0.00 | 0.00 | 0.00 | 56 | |
| 20260506214549 | 40 | 233 | 0.9 | 4.3 | 0.00 | 0.00 | 0.00 | 54 | |
| 20260506213521 | 41 | 231 | 0.9 | 1.7 | 0.00 | 0.00 | 0.00 | 55 | |
| 20260506212529 | 40 | 259 | 0.9 | 4.3 | 0.00 | 0.00 | 0.00 | 56 | |
| 20260506211521 | 40 | 257 | 0.9 | 4.3 | 0.00 | 0.00 | 0.00 | 56 | |
| 20260506210549 | 40 | 340 | 0.9 | 4.3 | 0.00 | 0.00 | 0.00 | 57 | |
| 20260506205521 | 40 | 274 | 0.9 | 4.3 | 0.00 | 0.00 | 0.00 | 56 | |
| 20260506204529 | 40 | 222 | 2.6 | 7.0 | 0.00 | 0.00 | 0.00 | 55 | |
| 20260506203541 | 42 | 228 | 1.7 | 6.1 | 0.00 | 0.00 | 0.00 | 54 | |
| 20260506202529 | 42 | 226 | 1.7 | 7.0 | 0.00 | 0.00 | 0.00 | 54 | |
| 20260506201621 | 43 | 219 | 0.9 | 4.3 | 0.00 | 0.00 | 0.00 | 53 | |
| 20260506200529 | 41 | 236 | 1.7 | 5.2 | 0.00 | 0.00 | 0.00 | 55 | |
| 20260506195521 | 43 | 299 | 0.9 | 2.6 | 0.00 | 0.00 | 0.00 | 52 | |
| 20260506194529 | 41 | 357 | 1.7 | 6.1 | 0.00 | 0.00 | 0.00 | 55 | |
| 20260506193523 | 42 | 307 | 2.6 | 6.1 | 0.00 | 0.00 | 0.00 | 53 | |
| 20260506192550 | 41 | 221 | 0.9 | 4.3 | 0.00 | 0.00 | 0.00 | 56 | |
| 20260506191521 | 42 | 260 | 1.7 | 7.0 | 0.00 | 0.00 | 0.00 | 52 | |
| 20260506190529 | 41 | 261 | 1.7 | 7.8 | 0.00 | 0.00 | 0.00 | 55 | |
| 20260506185541 | 42 | 244 | 1.7 | 5.2 | 0.00 | 0.00 | 0.00 | 53 | |
| 20260506184529 | 41 | 236 | 1.7 | 5.2 | 0.00 | 0.00 | 0.00 | 54 | |
| 20260506183521 | 41 | 268 | 1.7 | 5.2 | 0.00 | 0.00 | 0.00 | 53 | |
| 20260506182529 | 41 | 320 | 1.7 | 5.2 | 0.00 | 0.00 | 0.00 | 53 | |
| 20260506181521 | 40 | 242 | 1.7 | 6.1 | 0.00 | 0.00 | 0.00 | 56 | |
| 20260506180529 | 40 | 239 | 2.6 | 6.1 | 0.00 | 0.00 | 0.00 | 57 | |
| 20260506175521 | 40 | 313 | 1.7 | 5.2 | 0.00 | 0.00 | 0.00 | 55 | |
| 20260506174529 | 41 | 290 | 2.6 | 12.2 | 0.00 | 0.00 | 0.00 | 54 | |
| 20260506173521 | 40 | 313 | 1.7 | 5.2 | 0.00 | 0.00 | 0.00 | 56 | |
| 20260506172550 | 39 | 336 | 0.9 | 7.0 | 0.00 | 0.00 | 0.00 | 57 | |
| 20260506171521 | 39 | 244 | 1.7 | 5.2 | 0.00 | 0.00 | 0.00 | 54 | |
| 20260506170529 | 39 | 264 | 1.7 | 4.3 | 0.00 | 0.00 | 0.00 | 55 | |
| 20260506165521 | 39 | 247 | 1.7 | 6.1 | 0.00 | 0.00 | 0.00 | 56 | |
| 20260506164530 | 38 | 264 | 1.7 | 6.1 | 0.00 | 0.00 | 0.00 | 57 | |
| 20260506163521 | 38 | 316 | 1.7 | 4.3 | 0.00 | 0.00 | 0.00 | 56 | |
| 20260506162529 | 39 | 311 | 1.7 | 5.2 | 0.00 | 0.00 | 0.00 | 57 | |
| 20260506161521 | 38 | 281 | 1.7 | 5.2 | 0.00 | 0.00 | 0.00 | 58 | |
| 20260506160529 | 38 | 297 | 0.9 | 5.2 | 0.00 | 0.00 | 0.00 | 61 | |
| 20260506155522 | 37 | 245 | 0.9 | 2.6 | 0.00 | 0.00 | 0.00 | 62 | |
| 20260506154530 | 37 | 247 | 0.9 | 4.3 | 0.00 | 0.00 | 0.00 | 64 | |
| 20260506153522 | 37 | 244 | 1.7 | 5.2 | 0.00 | 0.00 | 0.00 | 64 | |
| 20260506152530 | 36 | 249 | 2.6 | 7.0 | 0.00 | 0.00 | 0.00 | 65 | |
| 20260506151521 | 36 | 266 | 1.7 | 6.1 | 0.00 | 0.00 | 0.00 | 66 | |
| 20260506150531 | 36 | 233 | 1.7 | 5.2 | 0.00 | 0.00 | 0.00 | 66 | |
| 20260506145521 | 37 | 318 | 2.6 | 7.8 | 0.00 | 0.00 | 0.00 | 66 | |
| 20260506144529 | 37 | 267 | 2.6 | 7.0 | 0.00 | 0.00 | 0.00 | 67 | |
| 20260506143522 | 36 | 235 | 1.7 | 5.2 | 0.00 | 0.00 | 0.00 | 69 | |
| 20260506142530 | 36 | 252 | 1.7 | 5.2 | 0.00 | 0.00 | 0.00 | 69 | |
| 20260506141522 | 36 | 264 | 1.7 | 4.3 | 0.00 | 0.00 | 0.00 | 70 | |
| 20260506140530 | 35 | 243 | 0.9 | 4.3 | 0.00 | 0.00 | 0.00 | 71 | |
| 20260506135522 | 35 | 294 | 1.7 | 6.1 | 0.00 | 0.00 | 0.00 | 69 | |
| 20260506134530 | 35 | 334 | 0.9 | 4.3 | 0.00 | 0.00 | 0.00 | 67 | |
| 20260506133535 | 35 | 311 | 1.7 | 5.2 | 0.00 | 0.00 | 0.00 | 65 | |
| 20260506132530 | 35 | 289 | 1.7 | 5.2 | 0.00 | 0.00 | 0.00 | 63 | |
| 20260506131522 | 35 | 333 | 1.7 | 5.2 | 0.00 | 0.00 | 0.00 | 62 | |
| 20260506130530 | 35 | 318 | 0.9 | 4.3 | 0.00 | 0.00 | 0.00 | 61 | |
| 20260506125522 | 35 | 307 | 0.9 | 4.3 | 0.00 | 0.00 | 0.00 | 60 | |
| 20260506124530 | 34 | 322 | 0.9 | 2.6 | 0.00 | 0.00 | 0.00 | 60 | |
| 20260506123522 | 34 | 237 | 0.9 | 1.7 | 0.00 | 0.00 | 0.00 | 61 | |
| 20260506122530 | 34 | 224 | 0.9 | 2.6 | 0.00 | 0.00 | 0.00 | 60 | |
| 20260506121524 | 34 | 239 | 0.9 | 5.2 | 0.00 | 0.00 | 0.00 | 60 | |
| 20260506120530 | 33 | 268 | 0.9 | 6.1 | 0.00 | 0.00 | 0.00 | 61 | |
| 20260506115522 | 33 | 245 | 0.9 | 4.3 | 0.00 | 0.00 | 0.00 | 62 | |
| 20260506114530 | 33 | 273 | 0.9 | 4.3 | 0.00 | 0.00 | 0.00 | 65 | |
| 20260506113522 | 33 | 321 | 0.9 | 6.1 | 0.00 | 0.00 | 0.00 | 66 | |
| 20260506112550 | 33 | 286 | 0.9 | 4.3 | 0.00 | 0.00 | 0.00 | 67 | |
| 20260506111524 | 33 | 303 | 0.9 | 4.3 | 0.00 | 0.00 | 0.00 | 67 | |
| 20260506110530 | 33 | 333 | 1.7 | 6.1 | 0.00 | 0.00 | 0.00 | 67 | |
| 20260506105522 | 33 | 344 | 0.0 | 2.6 | 0.00 | 0.00 | 0.00 | 67 | |
| 20260506104550 | 33 | 256 | 0.0 | 2.6 | 0.00 | 0.00 | 0.00 | 67 |